(467547) = 2007 TZ51

Discovered at Kitt Peak on 2007-10-04 by Spacewatch.

Orbit

Orbit type: Main Belt

Note: WebGL enabled browser required.

epoch2023-02-25.0
epoch JD2460000.5
perihelion date2021-11-14.72813
perihelion JD2459533.22813
argument of perihelion (°)205.23363
ascending node (°)218.56715
inclination (°)2.83716
eccentricity0.1405915
perihelion distance (AU)1.9659267
Tisserand w.r.t. Jupiter3.6
ΔV w.r.t. Earth (km/sec)8.7
semimajor axis (AU)2.2875345
mean anomaly (°)133.11347
mean daily motion (°/day)0.28487370
aphelion distance (AU)2.609
period (years)3.46
P-vector [x]0.44181945
P-vector [y]0.83124272
P-vector [z]0.33738867
Q-vector [x]-0.89657311
Q-vector [y]0.42207734
Q-vector [z]0.13419159
absolute magnitude18.26
phase slope0.15
uncertainty0
referenceMPO 745323
observations used179
oppositions9
arc length (days)8199
first opposition used2000
last opposition used2023
residual rms (arc-secs)0.69
perturbers coarse indicatorM-v
perturbers precise indicator003Ek
first observation date used2000-11-29.0
last observation date used2023-05-12.0
computer nameMPCLINUX
Minimum Orbit Intersection Distances (in AU)
for orbit epoch: 2460000.5, reference: E2023-JC8
Mercury1.6563
Venus1.24446
Earth0.9782
Mars0.43344
Jupiter2.67698
Saturn7.04294
Uranus16.0482
Neptune27.7547

Observations

183 total observations over interval: 2000 11 29.07543 – 2023 05 12.421733
These data are available for download (format description).

Date (UT) J2000 RA J2000 Dec Magn Location Ref
2000 11 29.07543 00 40 30.60 +04 39 21.0 21.8 V 691 – Steward Observatory, Kitt Peak-Spacewatch MPS 414231
2000 11 29.09619 00 40 30.95 +04 39 21.2 21.2 V 691 – Steward Observatory, Kitt Peak-Spacewatch MPS 414231
2000 11 29.11700 00 40 31.39 +04 39 21.7 21.7 V 691 – Steward Observatory, Kitt Peak-Spacewatch MPS 414231
2007 10 04.35973 02 25 51.29 +15 44 03.2   691 – Steward Observatory, Kitt Peak-Spacewatch MPS 220757
2007 10 04.37734 02 25 50.69 +15 43 58.6   691 – Steward Observatory, Kitt Peak-Spacewatch MPS 220757
2007 10 04.39498 02 25 50.08 +15 43 54.5   691 – Steward Observatory, Kitt Peak-Spacewatch MPS 220757
2007 10 08.25659 02 23 39.04 +15 26 25.5 20.4 V 691 – Steward Observatory, Kitt Peak-Spacewatch MPS 220757
2007 10 08.27420 02 23 38.37 +15 26 20.4 20.5 V 691 – Steward Observatory, Kitt Peak-Spacewatch MPS 220757
2007 10 08.29183 02 23 37.64 +15 26 15.5 20.4 V 691 – Steward Observatory, Kitt Peak-Spacewatch MPS 220757
2007 10 12.26315 02 20 56.20 +15 05 27.5 20.4 V 691 – Steward Observatory, Kitt Peak-Spacewatch MPS 220757
2007 10 12.28080 02 20 55.38 +15 05 21.5 20.4 V 691 – Steward Observatory, Kitt Peak-Spacewatch MPS 220757
2007 10 12.29845 02 20 54.56 +15 05 16.2 20.0 V 691 – Steward Observatory, Kitt Peak-Spacewatch MPS 220757
2007 10 12.32761 02 20 53.10 +15 05 07.7 20.6   704 – Lincoln Laboratory ETS, New Mexico MPS 220757
2007 10 12.33881 02 20 52.64 +15 05 02.9 20.7   704 – Lincoln Laboratory ETS, New Mexico MPS 220757
2007 10 12.35002 02 20 52.02 +15 04 58.8 20.8   704 – Lincoln Laboratory ETS, New Mexico MPS 220757
2007 10 16.25691 02 17 51.06 +14 41 59.3 20.1 V 691 – Steward Observatory, Kitt Peak-Spacewatch MPS 220757
2007 10 16.27456 02 17 50.14 +14 41 52.8 20.2 V 691 – Steward Observatory, Kitt Peak-Spacewatch MPS 220757
2007 10 16.29222 02 17 49.21 +14 41 46.1 20.4 V 691 – Steward Observatory, Kitt Peak-Spacewatch MPS 220757
2007 11 18.19367 01 50 15.97 +11 01 05.4 20.1 V G96 – Mt. Lemmon Survey MPS 235521
2007 11 18.20039 01 50 15.72 +11 01 03.1 20.0 V G96 – Mt. Lemmon Survey MPS 235521
2007 11 18.20713 01 50 15.46 +11 01 01.0 20.0 V G96 – Mt. Lemmon Survey MPS 235521
2007 11 18.21385 01 50 15.21 +11 00 58.9 19.5 V G96 – Mt. Lemmon Survey MPS 235521
2012 02 13.37092 09 42 21.749 +08 30 48.49 20.8 g F51 – Pan-STARRS 1, Haleakala MPS 411585
2012 02 13.38411 09 42 20.911 +08 30 53.09 20.9 g F51 – Pan-STARRS 1, Haleakala MPS 411585
2012 02 13.39775 09 42 20.041 +08 30 58.13 20.7 r F51 – Pan-STARRS 1, Haleakala MPS 411585
2012 02 13.41028 09 42 19.241 +08 31 02.34 20.5 r F51 – Pan-STARRS 1, Haleakala MPS 411585
2012 02 14.35247 09 41 21.883 +08 36 32.88 20.7 w F51 – Pan-STARRS 1, Haleakala MPS 411585
2012 02 14.36670 09 41 20.976 +08 36 37.88 20.6 w F51 – Pan-STARRS 1, Haleakala MPS 411585
2012 02 14.38088 09 41 20.077 +08 36 42.82 20.7 w F51 – Pan-STARRS 1, Haleakala MPS 411585
2014 09 24.46431 03 42 19.97 +20 07 57.5 20.7 V G96 – Mt. Lemmon Survey MPS 533237
2014 09 24.47042 03 42 20.13 +20 07 57.4 21.0 V G96 – Mt. Lemmon Survey MPS 533237
2014 09 24.47652 03 42 20.29 +20 07 57.7 20.7 V G96 – Mt. Lemmon Survey MPS 533237
2014 09 24.48262 03 42 20.48 +20 07 57.2 21.2 V G96 – Mt. Lemmon Survey MPS 533237
2014 10 21.27528 03 42 12.43 +19 15 32.2 20.6 V 691 – Steward Observatory, Kitt Peak-Spacewatch MPS 540499
2014 10 21.29556 03 42 11.75 +19 15 27.9 20.8 V 691 – Steward Observatory, Kitt Peak-Spacewatch MPS 540499
2014 10 21.31584 03 42 11.07 +19 15 22.9 20.8 V 691 – Steward Observatory, Kitt Peak-Spacewatch MPS 540499
2014 10 23.31940 03 41 07.05 +19 07 18.3 20.5 r G45 – Space Surveillance Telescope, Atom Site MPS 553140
2014 10 23.33187 03 41 06.58 +19 07 15.0 21.4 r G45 – Space Surveillance Telescope, Atom Site MPS 553140
2014 10 23.34390 03 41 06.16 +19 07 10.8 20.5 r G45 – Space Surveillance Telescope, Atom Site MPS 553140
2014 10 23.35555 03 41 05.75 +19 07 08.7 20.9 r G45 – Space Surveillance Telescope, Atom Site MPS 553140
2014 10 23.36677 03 41 05.33 +19 07 07.0 20.9 r G45 – Space Surveillance Telescope, Atom Site MPS 553140
2014 10 25.30153 03 39 56.05 +18 58 46.1 20.2 V 691 – Steward Observatory, Kitt Peak-Spacewatch MPS 542263
2014 10 25.32183 03 39 55.22 +18 58 40.8 20.4 V 691 – Steward Observatory, Kitt Peak-Spacewatch MPS 542263
2014 10 25.34210 03 39 54.39 +18 58 35.3 20.5 V 691 – Steward Observatory, Kitt Peak-Spacewatch MPS 542263
2014 10 25.58674 03 39 44.714 +18 57 31.29 20.4 w F51 – Pan-STARRS 1, Haleakala MPS 542263
2014 10 25.59865 03 39 44.220 +18 57 28.01 20.3 w F51 – Pan-STARRS 1, Haleakala MPS 542263
2014 10 25.61051 03 39 43.736 +18 57 24.72 20.4 w F51 – Pan-STARRS 1, Haleakala MPS 542263
2014 10 25.62239 03 39 43.250 +18 57 21.47 20.5 w F51 – Pan-STARRS 1, Haleakala MPS 542263
2014 10 26.21061 03 39 21.12 +18 54 41.5 20.7 R H07 – 7300 Observatory, Cloudcroft MPS 542263
2014 10 26.23314 03 39 20.20 +18 54 34.5 20.6 R H07 – 7300 Observatory, Cloudcroft MPS 542263
2014 10 26.25628 03 39 19.19 +18 54 28.5 20.9 R H07 – 7300 Observatory, Cloudcroft MPS 542263
2014 10 29.29950 03 37 10.70 +18 40 03.8   691 – Steward Observatory, Kitt Peak-Spacewatch MPS 542263
2014 10 29.31987 03 37 09.71 +18 39 57.4   691 – Steward Observatory, Kitt Peak-Spacewatch MPS 542263
2014 10 29.34023 03 37 08.76 +18 39 51.2   691 – Steward Observatory, Kitt Peak-Spacewatch MPS 542263
2014 11 15.39714 03 21 42.99 +17 04 10.2 19.4 V G96 – Mt. Lemmon Survey MPS 545701
2014 11 15.40324 03 21 42.60 +17 04 08.0 19.4 V G96 – Mt. Lemmon Survey MPS 545701
2014 11 15.40932 03 21 42.21 +17 04 05.7 19.4 V G96 – Mt. Lemmon Survey MPS 545701
2014 11 15.42005 03 21 41.56 +17 04 01.9 19.4 V G96 – Mt. Lemmon Survey MPS 545701
2014 11 17.27096 03 19 52.81 +16 53 00.2 20.3 r G45 – Space Surveillance Telescope, Atom Site MPS 553140
2014 11 17.27518 03 19 52.54 +16 52 59.0 20.4 r G45 – Space Surveillance Telescope, Atom Site MPS 553140
2014 11 17.27932 03 19 52.27 +16 52 57.6 20.2 r G45 – Space Surveillance Telescope, Atom Site MPS 553140
2014 11 17.28609 03 19 51.88 +16 52 55.1 19.9 r G45 – Space Surveillance Telescope, Atom Site MPS 553140
2014 11 18.26500 03 18 54.45 +16 47 06.8 20.0 r G45 – Space Surveillance Telescope, Atom Site MPS 553140
2014 11 18.27581 03 18 53.82 +16 47 02.8 19.8 r G45 – Space Surveillance Telescope, Atom Site MPS 553140
2014 11 18.28261 03 18 53.41 +16 47 00.7 19.8 r G45 – Space Surveillance Telescope, Atom Site MPS 553140
2014 11 18.28686 03 18 53.16 +16 46 58.9 19.7 r G45 – Space Surveillance Telescope, Atom Site MPS 553140
2014 11 19.26696 03 17 56.04 +16 41 12.7 19.8 r G45 – Space Surveillance Telescope, Atom Site MPS 553140
2014 11 19.26702 03 17 55.99 +16 41 10.4 20.3 r G45 – Space Surveillance Telescope, Atom Site MPS 553140
2014 11 19.27134 03 17 55.75 +16 41 09.8 20.4 r G45 – Space Surveillance Telescope, Atom Site MPS 553140
2014 11 19.27548 03 17 55.53 +16 41 09.1 19.9 r G45 – Space Surveillance Telescope, Atom Site MPS 553140
2014 11 19.27555 03 17 55.46 +16 41 08.7 19.8 r G45 – Space Surveillance Telescope, Atom Site MPS 553140
2014 11 19.27804 03 17 55.32 +16 41 07.6 20.2 r G45 – Space Surveillance Telescope, Atom Site MPS 553140
2014 11 19.28218 03 17 55.09 +16 41 06.0 19.9 r G45 – Space Surveillance Telescope, Atom Site MPS 553140
2014 11 25.25628 03 12 20.25 +16 06 58.2 20.6 V 703 – Catalina Sky Survey MPS 547717
2014 11 25.26690 03 12 19.50 +16 06 53.2 19.5 V 703 – Catalina Sky Survey MPS 547717
2014 11 25.28531 03 12 18.42 +16 06 47.3 19.2 V 703 – Catalina Sky Survey MPS 547717
2014 11 26.23955 03 11 28.27 +16 01 35.9 20.0 r G45 – Space Surveillance Telescope, Atom Site MPS 562628
2014 11 26.24369 03 11 28.02 +16 01 34.2 20.4 r G45 – Space Surveillance Telescope, Atom Site MPS 562628
2014 11 26.24804 03 11 27.76 +16 01 33.0 20.1 r G45 – Space Surveillance Telescope, Atom Site MPS 562628
2014 11 26.25218 03 11 27.58 +16 01 31.8 20.1 r G45 – Space Surveillance Telescope, Atom Site MPS 562628
2014 11 26.25467 03 11 27.36 +16 01 30.8 20.4 r G45 – Space Surveillance Telescope, Atom Site MPS 562628
2014 11 26.25882 03 11 27.17 +16 01 29.5 19.7 r G45 – Space Surveillance Telescope, Atom Site MPS 562628
2014 12 11.15270 03 01 22.55 +14 56 06.3 20.1 V G96 – Mt. Lemmon Survey MPS 551596
2014 12 11.15782 03 01 22.39 +14 56 05.4 20.2 V G96 – Mt. Lemmon Survey MPS 551596
2014 12 11.16294 03 01 22.25 +14 56 04.5 20.0 V G96 – Mt. Lemmon Survey MPS 551596
2014 12 11.16805 03 01 22.09 +14 56 03.2 20.0 V G96 – Mt. Lemmon Survey MPS 551596
